Date String (YYYY-MM-DD hh:mm:ss) UTC,Instrument flags,Ambient pressure (hPa),Sample flow (lpm),Bypass flow (lpm),Sample temperature (°C),Ambient temperature (°C),ASC tube jacket temperature (°C),LED temperature (°C),Box temperature (°C),Sample RH (%),Span deviation,Mass concentration (μg/m³),Mass concentration (μg/m³),Mass concentration (μg/m³)
DateTimeUTC,F1_M11,P_M11,Q1_M11,Q2_M11,T1_M11,T2_M11,T3_M11,T4_M11,T5_M11,U1_M11,ZSPAN_M11,X2_M11,X0_M11,X1_M11
2022-03-14 03:00:00,,0818.8,5.02,0.00,26.3,25.2,00.0,35.5,27.9,11.0,0000.0,0000.69,0001.02,0000.53
2022-03-14 03:01:00,,0818.8,4.99,0.00,26.3,25.2,00.0,35.5,27.9,10.9,0000.0,0000.70,0001.04,0000.53
2022-03-14 03:02:00,,0818.8,5.00,0.00,26.3,25.2,00.0,35.4,27.8,10.9,0000.0,0000.69,0001.05,0000.53
2022-03-14 03:03:00,,0818.9,5.00,0.00,26.3,25.2,00.0,35.4,27.8,10.9,0000.0,0000.69,0001.01,0000.52
2022-03-14 03:04:00,,0819.0,5.01,0.00,26.3,25.2,00.0,35.4,27.9,11.0,0000.0,0000.68,0000.99,0000.53
2022-03-14 03:05:00,,0819.0,5.00,0.00,26.3,25.3,00.0,35.4,28.0,11.0,0000.0,0000.66,0000.95,0000.53
2022-03-14 03:06:00,,0818.9,5.00,0.00,26.3,25.3,00.0,35.4,28.0,11.0,0000.0,0000.66,0000.96,0000.53
2022-03-14 03:07:00,,0818.9,5.00,0.00,26.3,25.3,00.0,35.4,28.0,11.0,0000.0,0000.68,0001.01,0000.53
2022-03-14 03:08:00,,0818.9,5.00,0.00,26.3,25.3,00.0,35.4,28.0,10.9,0000.0,0000.68,0002.08,0000.54
2022-03-14 03:09:00,,0819.0,5.00,0.00,26.3,25.3,00.0,35.4,28.0,10.9,0000.0,0000.67,0002.15,0000.53
2022-03-14 03:10:00,,0818.9,5.01,0.00,26.3,25.3,00.0,35.4,28.0,11.0,0000.0,0000.65,0002.12,0000.52
2022-03-14 03:11:00,,0819.0,4.99,0.00,26.3,25.3,00.0,35.4,28.0,11.1,0000.0,0000.66,0002.16,0000.52
2022-03-14 03:12:00,,0819.1,5.01,0.00,26.3,25.3,00.0,35.4,28.1,11.1,0000.0,0000.69,0002.34,0000.52
2022-03-14 03:13:00,,0819.1,5.00,0.00,26.4,25.4,00.0,35.4,28.1,11.0,0000.0,0000.69,0002.33,0000.52
2022-03-14 03:14:00,,0819.1,5.00,0.00,26.4,25.4,00.0,35.4,28.1,11.0,0000.0,0000.66,0002.27,0000.51
2022-03-14 03:15:00,,0819.2,5.00,0.00,26.4,25.4,00.0,35.4,28.1,11.1,0000.0,0000.65,0002.22,0000.51
2022-03-14 03:16:00,,0819.2,5.00,0.00,26.4,25.4,00.0,35.4,28.1,11.1,0000.0,0000.67,0002.27,0000.50
2022-03-14 03:17:00,,0819.2,5.00,0.00,26.4,25.5,00.0,35.4,28.1,11.1,0000.0,0000.67,0002.28,0000.50
2022-03-14 03:18:00,,0819.2,5.00,0.00,26.4,25.5,00.0,35.4,28.1,11.0,0000.0,0000.65,0002.21,0000.49
2022-03-14 03:19:00,,0819.3,5.00,0.00,26.4,25.4,00.0,35.4,28.1,11.0,0000.0,0000.64,0001.68,0000.49
2022-03-14 03:20:00,,0819.2,5.00,0.00,26.4,25.5,00.0,35.4,28.1,11.1,0000.0,0000.65,0001.93,0000.50
2022-03-14 03:21:00,,0819.2,5.01,0.00,26.4,25.5,00.0,35.4,28.2,11.2,0000.0,0000.66,0002.06,0000.50
2022-03-14 03:22:00,,0819.3,5.01,0.00,26.5,25.5,00.0,35.4,28.2,11.1,0000.0,0000.66,0002.49,0000.49
2022-03-14 03:23:00,,0819.4,4.99,0.00,26.5,25.6,00.0,35.4,28.2,11.0,0000.0,0000.62,0002.44,0000.49
2022-03-14 03:24:00,,0819.4,5.00,0.00,26.5,25.6,00.0,35.4,28.2,10.9,0000.0,0000.59,0002.38,0000.47
2022-03-14 03:25:00,,0819.4,4.99,0.00,26.5,25.6,00.0,35.4,28.2,10.9,0000.0,0000.60,0002.41,0000.47
2022-03-14 03:26:00,,0819.5,5.01,0.00,26.5,25.6,00.0,35.4,28.3,11.1,0000.0,0000.61,0002.46,0000.46
2022-03-14 03:27:00,,0819.5,5.01,0.00,26.5,25.6,00.0,35.4,28.3,11.1,0000.0,0000.60,0002.43,0000.45
2022-03-14 03:28:00,,0819.5,5.00,0.00,26.5,25.7,00.0,35.5,28.3,11.1,0000.0,0000.58,0002.40,0000.45
2022-03-14 03:29:00,,0819.6,5.00,0.00,26.5,25.7,00.0,35.5,28.3,11.0,0000.0,0000.58,0002.39,0000.44
2022-03-14 03:30:00,,0819.5,4.99,0.00,26.5,25.7,00.0,35.5,28.3,11.2,0000.0,0000.58,0002.11,0000.44
2022-03-14 03:31:00,,0819.5,5.00,0.00,26.5,25.6,00.0,35.5,28.2,11.2,0000.0,0000.60,0001.61,0000.43
2022-03-14 03:32:00,,0819.5,4.99,0.00,26.5,25.6,00.0,35.5,28.2,11.1,0000.0,0000.58,0001.51,0000.42
2022-03-14 03:33:00,,0819.4,5.00,0.00,26.5,25.6,00.0,35.5,28.1,11.1,0000.0,0000.58,0001.14,0000.41
2022-03-14 03:34:00,,0819.5,4.99,0.00,26.5,25.6,00.0,35.5,28.1,11.1,0000.0,0000.57,0000.91,0000.41
2022-03-14 03:35:00,,0819.5,5.00,0.00,26.5,25.5,00.0,35.5,28.0,11.2,0000.0,0000.56,0000.89,0000.41
2022-03-14 03:36:00,,0819.5,5.01,0.00,26.5,25.5,00.0,35.5,28.1,11.0,0000.0,0000.57,0000.90,0000.42
2022-03-14 03:37:00,,0819.5,5.01,0.00,26.4,25.5,00.0,35.5,28.0,10.9,0000.0,0000.57,0000.91,0000.42
2022-03-14 03:38:00,,0819.5,4.99,0.00,26.4,25.5,00.0,35.5,28.0,10.9,0000.0,0000.56,0000.90,0000.42
2022-03-14 03:39:00,,0819.5,5.00,0.00,26.4,25.4,00.0,35.4,28.0,11.0,0000.0,0000.55,0000.89,0000.41
2022-03-14 03:40:00,,0819.5,5.00,0.00,26.4,25.4,00.0,35.4,28.0,11.1,0000.0,0000.56,0000.91,0000.41
2022-03-14 03:41:00,,0819.5,5.01,0.00,26.4,25.3,00.0,35.4,27.9,10.8,0000.0,0000.59,0000.98,0000.41
2022-03-14 03:42:00,,0819.6,4.99,0.00,26.3,25.3,00.0,35.4,27.9,10.9,0000.0,0000.59,0001.00,0000.40
2022-03-14 03:43:00,,0819.6,4.99,0.00,26.3,25.3,00.0,35.4,27.9,10.8,0000.0,0000.60,0001.09,0000.41
2022-03-14 03:44:00,,0819.5,5.00,0.00,26.3,25.3,00.0,35.4,28.0,10.8,0000.0,0000.60,0001.09,0000.41
2022-03-14 03:45:00,,0819.6,5.01,0.00,26.3,25.3,00.0,35.4,27.9,10.9,0000.0,0000.59,0001.07,0000.41
2022-03-14 03:46:00,,0819.6,5.00,0.00,26.3,25.3,00.0,35.4,27.8,10.8,0000.0,0000.58,0001.07,0000.41
2022-03-14 03:47:00,,0819.7,4.99,0.00,26.3,25.2,00.0,35.4,27.8,10.7,0000.0,0000.58,0001.17,0000.41
2022-03-14 03:48:00,,0819.7,5.01,0.00,26.2,25.2,00.0,35.4,27.8,10.8,0000.0,0000.55,0001.08,0000.40
2022-03-14 03:49:00,,0819.7,4.99,0.00,26.2,25.1,00.0,35.4,27.8,11.0,0000.0,0000.56,0001.10,0000.40
2022-03-14 03:50:00,,0819.7,4.99,0.00,26.2,25.1,00.0,35.3,27.8,10.9,0000.0,0000.58,0001.15,0000.39
2022-03-14 03:51:00,,0819.7,5.01,0.00,26.2,25.1,00.0,35.3,27.8,11.0,0000.0,0000.58,0001.14,0000.39
2022-03-14 03:52:00,,0819.7,5.00,0.00,26.2,25.2,00.0,35.3,27.8,11.0,0000.0,0000.57,0001.11,0000.40
2022-03-14 03:53:00,,0819.7,5.00,0.00,26.2,25.1,00.0,35.3,27.8,10.9,0000.0,0000.53,0001.00,0000.40
2022-03-14 03:54:00,,0819.7,4.99,0.00,26.2,25.1,00.0,35.3,27.8,10.9,0000.0,0000.52,0000.90,0000.39
2022-03-14 03:55:00,,0819.7,5.01,0.00,26.2,25.1,00.0,35.3,27.8,10.9,0000.0,0000.52,0000.89,0000.39
2022-03-14 03:56:00,,0819.7,5.01,0.00,26.2,25.1,00.0,35.3,27.8,10.9,0000.0,0000.53,0000.95,0000.39
2022-03-14 03:57:00,,0819.7,5.00,0.00,26.2,25.0,00.0,35.3,27.7,11.0,0000.0,0000.55,0000.99,0000.40
2022-03-14 03:58:00,,0819.6,5.00,0.00,26.2,25.1,00.0,35.3,27.7,11.1,0000.0,0000.55,0000.90,0000.40
2022-03-14 03:59:00,,0819.5,4.99,0.00,26.1,25.1,00.0,35.3,27.8,10.8,0000.0,0000.55,0000.90,0000.39
